Location: Oregon Trail
(41.1872°N, 102.0741°W)
Time: 02:30:34
(UTC+00:00)

Lacrosse 5 rocket - Pass Details

Date: 19 November 2019
Orbit: 461 x 637 km, 57.0° (Epoch: 14 December)

Event Time Altitude Azimuth Distance (km) Brightness Sun altitude
Exits shadow 12:58:50 - 326° (NW) 1,959 3.7 -8.1°
Reaches altitude 10° 12:59:44 10° 331° (NNW) 1,616 3.3 -8.0°
Maximum altitude 13:03:02 33° 37° (NE) 800 2.4 -7.4°
Drops below altitude 10° 13:06:19 10° 104° (ESE) 1,610 5.5 -6.8°
Sets 13:08:36 0° 114° (ESE) 2,493 7.4 -6.4°
